Date String (YYYY-MM-DD hh:mm:ss) UTC,Instrument flags,Ambient pressure (hPa),Sample flow (lpm),Bypass flow (lpm),Sample temperature (°C),Ambient temperature (°C),ASC tube jacket temperature (°C),LED temperature (°C),Box temperature (°C),Sample RH (%),Span deviation,Mass concentration (μg/m³),Mass concentration (μg/m³),Mass concentration (μg/m³)
DateTimeUTC,F1_M11,P_M11,Q1_M11,Q2_M11,T1_M11,T2_M11,T3_M11,T4_M11,T5_M11,U1_M11,ZSPAN_M11,X2_M11,X0_M11,X1_M11
2022-05-29 02:00:00,,0813.6,5.00,0.00,29.4,28.4,00.0,38.2,31.4,09.6,0000.0,0002.31,0007.78,0000.97
2022-05-29 02:01:00,,0813.7,5.00,0.00,29.5,28.5,00.0,38.3,31.4,09.5,0000.0,0002.34,0008.22,0000.97
2022-05-29 02:02:00,,0813.8,5.00,0.00,29.5,28.6,00.0,38.3,31.4,09.6,0000.0,0002.29,0008.12,0000.97
2022-05-29 02:03:00,,0813.7,5.00,0.00,29.5,28.6,00.0,38.3,31.5,09.1,0000.0,0002.26,0008.05,0000.97
2022-05-29 02:04:00,,0813.7,5.00,0.00,29.6,28.7,00.0,38.3,31.5,09.1,0000.0,0002.33,0008.49,0000.98
2022-05-29 02:05:00,,0813.7,5.00,0.00,29.5,28.0,00.0,38.3,31.4,09.5,0000.0,0002.38,0009.53,0000.98
2022-05-29 02:06:00,,0813.8,4.99,0.00,29.5,27.4,00.0,38.2,31.2,09.2,0000.0,0002.43,0009.54,0000.99
2022-05-29 02:07:00,,0813.7,4.99,0.00,29.4,27.3,00.0,38.2,31.1,09.2,0000.0,0002.34,0009.12,0000.99
2022-05-29 02:08:00,,0813.8,5.01,0.00,29.4,27.3,00.0,38.2,31.1,09.5,0000.0,0002.35,0009.09,0000.97
2022-05-29 02:09:00,,0813.6,5.00,0.00,29.3,27.5,00.0,38.2,31.1,09.0,0000.0,0002.39,0009.16,0000.96
2022-05-29 02:10:00,,0813.9,5.00,0.00,29.3,27.6,00.0,38.2,31.1,09.3,0000.0,0002.37,0009.09,0000.96
2022-05-29 02:11:00,,0813.7,5.00,0.00,29.3,27.8,00.0,38.2,31.2,09.3,0000.0,0002.43,0008.49,0000.97
2022-05-29 02:12:00,,0813.7,5.00,0.00,29.3,27.9,00.0,38.2,31.2,09.6,0000.0,0002.42,0008.19,0000.96
2022-05-29 02:13:00,,0813.8,5.00,0.00,29.4,28.0,00.0,38.2,31.2,09.3,0000.0,0002.47,0008.22,0000.96
2022-05-29 02:14:00,,0813.9,5.00,0.00,29.4,28.1,00.0,38.2,31.3,09.6,0000.0,0002.49,0008.25,0000.95
2022-05-29 02:15:00,,0813.7,5.00,0.00,29.4,28.3,00.0,38.2,31.3,09.2,0000.0,0002.45,0007.92,0000.94
2022-05-29 02:16:00,,0814.1,5.00,0.00,29.4,28.3,00.0,38.3,31.3,09.3,0000.0,0002.45,0006.68,0000.93
2022-05-29 02:17:00,,0814.2,5.00,0.00,29.5,28.4,00.0,38.3,31.4,09.2,0000.0,0002.43,0006.65,0000.92
2022-05-29 02:18:00,,0814.1,5.00,0.00,29.5,28.5,00.0,38.3,31.4,09.3,0000.0,0002.45,0006.80,0000.92
2022-05-29 02:19:00,,0814.1,5.01,0.00,29.5,28.6,00.0,38.3,31.4,09.2,0000.0,0002.51,0007.17,0000.92
2022-05-29 02:20:00,,0813.9,5.00,0.00,29.5,28.6,00.0,38.3,31.5,09.3,0000.0,0002.52,0007.21,0000.93
2022-05-29 02:21:00,,0814.1,5.00,0.00,29.6,28.7,00.0,38.3,31.5,09.1,0000.0,0002.49,0007.12,0000.92
2022-05-29 02:22:00,,0814.1,5.01,0.00,29.6,28.5,00.0,38.3,31.5,09.0,0000.0,0002.40,0006.49,0000.92
2022-05-29 02:23:00,,0814.1,4.99,0.00,29.5,27.8,00.0,38.3,31.2,09.0,0000.0,0002.40,0006.04,0000.92
2022-05-29 02:24:00,,0813.7,5.00,0.00,29.5,27.3,00.0,38.2,31.1,08.9,0000.0,0002.38,0006.19,0000.92
2022-05-29 02:25:00,,0813.9,5.01,0.00,29.4,27.3,00.0,38.2,31.0,09.0,0000.0,0002.44,0006.51,0000.94
2022-05-29 02:26:00,,0814.1,5.00,0.00,29.3,27.4,00.0,38.2,31.0,09.0,0000.0,0002.49,0008.09,0000.94
2022-05-29 02:27:00,,0814.0,4.99,0.00,29.3,27.5,00.0,38.2,31.1,09.2,0000.0,0002.49,0008.60,0000.95
2022-05-29 02:28:00,,0814.1,5.01,0.00,29.3,27.6,00.0,38.2,31.1,09.0,0000.0,0002.47,0008.62,0000.95
2022-05-29 02:29:00,,0814.2,4.99,0.00,29.3,27.8,00.0,38.2,31.2,09.2,0000.0,0002.49,0008.62,0000.95
2022-05-29 02:30:00,,0813.9,4.99,0.00,29.3,27.9,00.0,38.2,31.2,09.2,0000.0,0002.50,0008.48,0000.95
2022-05-29 02:31:00,,0814.1,5.01,0.00,29.3,28.0,00.0,38.2,31.2,09.3,0000.0,0002.53,0009.34,0000.94
2022-05-29 02:32:00,,0813.8,5.00,0.00,29.4,28.1,00.0,38.2,31.3,09.3,0000.0,0002.57,0010.19,0000.94
2022-05-29 02:33:00,,0813.8,4.99,0.00,29.4,28.2,00.0,38.2,31.3,09.3,0000.0,0002.61,0011.33,0000.93
2022-05-29 02:34:00,,0813.7,4.99,0.00,29.4,28.3,00.0,38.3,31.3,09.3,0000.0,0002.62,0011.41,0000.93
2022-05-29 02:35:00,,0813.6,5.00,0.00,29.4,28.4,00.0,38.3,31.4,09.1,0000.0,0002.62,0011.31,0000.94
2022-05-29 02:36:00,,0813.6,4.99,0.00,29.5,28.5,00.0,38.3,31.4,09.1,0000.0,0002.64,0011.24,0000.93
2022-05-29 02:37:00,,0813.8,5.01,0.00,29.5,28.6,00.0,38.3,31.4,09.1,0000.0,0002.69,0010.60,0000.93
2022-05-29 02:38:00,,0813.7,5.00,0.00,29.5,28.6,00.0,38.3,31.5,09.2,0000.0,0002.68,0010.14,0000.93
2022-05-29 02:39:00,,0813.6,4.98,0.00,29.6,28.7,00.0,38.4,31.5,09.0,0000.0,0002.67,0010.02,0000.94
2022-05-29 02:40:00,,0813.6,5.00,0.00,29.6,28.7,00.0,38.4,31.5,09.0,0000.0,0002.67,0010.07,0000.94
2022-05-29 02:41:00,,0813.6,5.01,0.00,29.6,28.3,00.0,38.3,31.5,09.1,0000.0,0002.63,0010.69,0000.95
2022-05-29 02:42:00,,0813.6,4.98,0.00,29.5,27.5,00.0,38.3,31.2,09.1,0000.0,0002.67,0010.42,0000.97
2022-05-29 02:43:00,,0813.6,5.01,0.00,29.5,27.3,00.0,38.3,31.1,09.1,0000.0,0002.69,0010.97,0001.00
2022-05-29 02:44:00,,0813.6,4.98,0.00,29.4,27.3,00.0,38.2,31.1,09.2,0000.0,0002.68,0009.92,0001.00
2022-05-29 02:45:00,,0813.8,5.01,0.00,29.3,27.4,00.0,38.2,31.1,09.0,0000.0,0002.69,0009.92,0000.99
2022-05-29 02:46:00,,0813.6,4.99,0.00,29.3,27.5,00.0,38.2,31.1,09.1,0000.0,0002.77,0010.91,0001.00
2022-05-29 02:47:00,,0813.6,4.99,0.00,29.3,27.7,00.0,38.2,31.1,09.0,0000.0,0002.75,0011.20,0001.00
2022-05-29 02:48:00,,0813.7,5.01,0.00,29.3,27.8,00.0,38.2,31.2,09.0,0000.0,0002.67,0011.01,0001.01
2022-05-29 02:49:00,,0813.8,5.00,0.00,29.3,27.9,00.0,38.2,31.2,09.0,0000.0,0002.76,0011.32,0001.01
2022-05-29 02:50:00,,0813.7,4.99,0.00,29.4,28.0,00.0,38.2,31.2,09.2,0000.0,0002.89,0012.66,0001.02
2022-05-29 02:51:00,,0813.8,5.01,0.00,29.4,28.1,00.0,38.2,31.2,09.3,0000.0,0002.89,0013.69,0001.02
2022-05-29 02:52:00,,0813.7,4.99,0.00,29.4,28.2,00.0,38.3,31.3,09.2,0000.0,0002.94,0013.29,0001.03
2022-05-29 02:53:00,,0813.9,4.99,0.00,29.4,28.3,00.0,38.3,31.3,09.0,0000.0,0002.92,0012.90,0001.03
2022-05-29 02:54:00,,0813.7,5.00,0.00,29.4,28.4,00.0,38.3,31.4,09.1,0000.0,0002.91,0011.45,0001.02
2022-05-29 02:55:00,,0813.7,5.00,0.00,29.5,28.5,00.0,38.3,31.4,09.2,0000.0,0002.98,0011.29,0001.04
2022-05-29 02:56:00,,0813.8,5.00,0.00,29.5,28.5,00.0,38.3,31.4,09.2,0000.0,0003.00,0011.30,0001.06
2022-05-29 02:57:00,,0813.6,5.00,0.00,29.5,28.6,00.0,38.3,31.4,09.4,0000.0,0002.93,0010.38,0001.05
2022-05-29 02:58:00,,0813.8,5.01,0.00,29.5,28.6,00.0,38.3,31.5,09.3,0000.0,0002.95,0010.06,0001.05
2022-05-29 02:59:00,,0813.6,5.00,0.00,29.6,28.7,00.0,38.4,31.5,09.3,0000.0,0002.98,0009.96,0001.04
